TimeEST,TemperatureF,Dew PointF,Humidity,Sea Level PressureIn,VisibilityMPH,Wind Direction,Wind SpeedMPH,Gust SpeedMPH,PrecipitationIn,Events,Conditions,WindDirDegrees,DateUTC
12:53 AM,41.0,24.1,51,29.86,10.0,WNW,3.5,-,N/A,,Overcast,300,2000-01-13 05:53:00
1:53 AM,48.0,33.1,56,29.81,10.0,Variable,5.8,-,N/A,,Overcast,0,2000-01-13 06:53:00
2:53 AM,53.1,42.1,66,29.76,10.0,SW,11.5,23.0,0.00,,Overcast,230,2000-01-13 07:53:00
3:53 AM,48.9,48.9,100,29.75,10.0,SW,11.5,18.4,0.04,Rain,Light Rain,220,2000-01-13 08:53:00
4:07 AM,48.2,48.2,100,29.74,8.0,SW,6.9,17.3,0.01,Rain,Light Rain,220,2000-01-13 09:07:00
4:53 AM,48.9,48.9,100,29.74,10.0,SW,10.4,-,0.01,,Overcast,220,2000-01-13 09:53:00
5:53 AM,50.0,50.0,100,29.75,10.0,SW,9.2,-,N/A,,Overcast,220,2000-01-13 10:53:00
6:53 AM,51.1,48.9,92,29.76,10.0,West,12.7,19.6,0.00,,Overcast,270,2000-01-13 11:53:00
7:53 AM,50.0,45.0,83,29.77,10.0,WSW,12.7,25.3,N/A,,Overcast,250,2000-01-13 12:53:00
8:04 AM,50.0,44.6,82,29.76,10.0,West,15.0,27.6,N/A,,Overcast,260,2000-01-13 13:04:00
8:53 AM,48.0,39.9,74,29.79,10.0,West,13.8,28.8,N/A,,Mostly Cloudy,260,2000-01-13 13:53:00
9:53 AM,45.0,37.9,76,29.83,10.0,WNW,12.7,21.9,N/A,,Mostly Cloudy,290,2000-01-13 14:53:00
10:53 AM,42.1,30.0,62,29.88,10.0,West,16.1,23.0,N/A,,Overcast,270,2000-01-13 15:53:00
11:28 AM,37.4,35.6,93,29.89,9.0,West,11.5,20.7,0.00,Rain,Light Rain,270,2000-01-13 16:28:00
11:53 AM,37.9,34.0,86,29.95,8.0,NW,13.8,23.0,0.00,Rain,Light Rain,320,2000-01-13 16:53:00
12:00 PM,33.8,33.8,100,29.93,1.5,NW,15.0,21.9,0.01,Rain-Snow,Snow,310,2000-01-13 17:00:00
12:10 PM,33.8,33.8,100,29.94,1.5,NW,11.5,23.0,0.01,Rain-Snow,Light Snow,320,2000-01-13 17:10:00
12:13 PM,33.8,33.8,100,29.95,0.8,NW,13.8,23.0,0.01,Snow,Light Snow,310,2000-01-13 17:13:00
12:19 PM,33.8,32.0,93,29.95,1.0,NW,9.2,21.9,0.01,Snow,Light Snow,310,2000-01-13 17:19:00
12:29 PM,33.8,33.8,100,29.95,1.5,NW,9.2,17.3,0.01,Snow,Light Snow,310,2000-01-13 17:29:00
12:35 PM,33.8,32.0,93,29.96,2.0,WNW,13.8,19.6,0.02,Snow,Light Snow,300,2000-01-13 17:35:00
12:44 PM,33.8,32.0,93,29.97,3.0,NW,11.5,18.4,0.02,,Overcast,320,2000-01-13 17:44:00
1:53 PM,33.1,28.0,82,30.05,9.0,NW,9.2,-,0.00,,Overcast,320,2000-01-13 18:53:00
2:32 PM,32.0,26.6,80,30.06,10.0,NW,10.4,24.2,N/A,,Overcast,310,2000-01-13 19:32:00
2:42 PM,32.0,26.6,80,30.07,10.0,WNW,8.1,20.7,N/A,,Overcast,300,2000-01-13 19:42:00
2:53 PM,30.9,27.0,85,30.11,9.0,NW,8.1,16.1,0.00,,Overcast,310,2000-01-13 19:53:00
3:53 PM,28.9,23.0,78,30.19,10.0,NNW,8.1,20.7,0.00,Rain,Freezing Rain,340,2000-01-13 20:53:00
4:46 PM,28.4,21.2,74,30.22,10.0,Variable,6.9,-,0.00,,Overcast,0,2000-01-13 21:46:00
4:53 PM,28.0,19.9,72,30.25,10.0,NNW,9.2,17.3,0.00,,Overcast,340,2000-01-13 21:53:00
5:38 PM,28.4,21.2,74,30.25,8.0,NW,9.2,16.1,0.00,Snow,Light Snow,320,2000-01-13 22:38:00
5:53 PM,27.0,24.1,89,30.29,6.0,WNW,9.2,17.3,0.00,Snow,Light Snow,300,2000-01-13 22:53:00
6:00 PM,26.6,24.8,93,30.27,1.0,NW,8.1,-,0.00,Snow,Light Snow,320,2000-01-13 23:00:00
6:06 PM,26.6,24.8,93,30.28,2.0,NW,8.1,-,0.00,Snow,Light Snow,310,2000-01-13 23:06:00
6:22 PM,26.6,24.8,93,30.29,1.0,NW,6.9,16.1,0.01,Snow,Light Snow,320,2000-01-13 23:22:00
6:27 PM,26.6,24.8,93,30.30,0.8,NW,5.8,-,0.01,Snow,Light Snow,320,2000-01-13 23:27:00
6:34 PM,26.6,26.6,100,30.30,1.0,Variable,5.8,-,0.01,Snow,Light Snow,0,2000-01-13 23:34:00
6:41 PM,26.6,23.0,86,30.31,3.0,Variable,6.9,-,0.01,Snow,Light Snow,0,2000-01-13 23:41:00
6:53 PM,26.1,24.1,92,30.35,4.0,NW,9.2,16.1,0.01,Snow,Light Snow,310,2000-01-13 23:53:00
6:55 PM,26.6,24.8,93,30.32,2.5,Variable,5.8,-,0.00,Snow,Light Snow,0,2000-01-13 23:55:00
7:01 PM,24.8,24.8,100,30.33,1.0,NW,8.1,-,0.00,Snow,Light Snow,310,2000-01-14 00:01:00
7:09 PM,24.8,21.2,86,30.34,2.0,NW,9.2,18.4,0.00,Snow,Light Snow,320,2000-01-14 00:09:00
7:17 PM,24.8,19.4,80,30.34,7.0,NW,12.7,18.4,0.01,Snow,Light Snow,310,2000-01-14 00:17:00
7:25 PM,24.8,19.4,80,30.35,3.0,NW,8.1,18.4,0.01,Snow,Light Snow,320,2000-01-14 00:25:00
7:44 PM,23.0,19.4,86,30.37,3.0,NNW,13.8,20.7,0.01,Snow,Light Snow,330,2000-01-14 00:44:00
7:53 PM,23.0,17.1,78,30.40,3.0,NNW,11.5,20.7,0.01,Snow,Light Snow,330,2000-01-14 00:53:00
8:09 PM,23.0,17.6,80,30.38,5.0,NNW,8.1,16.1,0.00,Snow,Light Snow,340,2000-01-14 01:09:00
8:53 PM,23.0,17.1,78,30.43,9.0,NW,10.4,17.3,0.00,Snow,Light Snow,310,2000-01-14 01:53:00
9:05 PM,23.0,15.8,74,30.40,9.0,NW,8.1,-,0.00,Snow,Light Snow,320,2000-01-14 02:05:00
9:26 PM,21.2,10.4,63,30.41,9.0,Variable,6.9,16.1,0.00,Snow,Light Snow,0,2000-01-14 02:26:00
9:53 PM,21.9,10.9,63,30.46,9.0,NW,8.1,17.3,0.00,Snow,Light Snow,310,2000-01-14 02:53:00
10:53 PM,21.0,10.9,65,30.50,9.0,Variable,4.6,-,0.00,Snow,Light Snow,0,2000-01-14 03:53:00
11:53 PM,19.0,9.0,65,30.53,10.0,NW,10.4,17.3,0.00,,Scattered Clouds,310,2000-01-14 04:53:00